TimeEDT,TemperatureF,Dew PointF,Humidity,Sea Level PressureIn,VisibilityMPH,Wind Direction,Wind SpeedMPH,Gust SpeedMPH,PrecipitationIn,Events,Conditions,WindDirDegrees,DateUTC
12:54 AM,69.1,64.0,84,30.02,9.0,ESE,3.5,-,N/A,,Scattered Clouds,110,2013-10-06 04:54:00
1:54 AM,68.0,64.0,87,30.02,8.0,Calm,Calm,-,N/A,,Partly Cloudy,0,2013-10-06 05:54:00
2:54 AM,68.0,64.0,87,30.01,8.0,Calm,Calm,-,N/A,,Partly Cloudy,0,2013-10-06 06:54:00
3:54 AM,66.9,63.0,87,30.00,8.0,Calm,Calm,-,N/A,,Scattered Clouds,0,2013-10-06 07:54:00
4:54 AM,66.0,63.0,90,29.99,7.0,Calm,Calm,-,N/A,Fog,Patches of Fog,0,2013-10-06 08:54:00
5:54 AM,66.9,64.9,93,30.01,5.0,East,3.5,-,N/A,,Scattered Clouds,100,2013-10-06 09:54:00
6:37 AM,68.0,66.2,94,30.02,3.0,ESE,3.5,-,N/A,,Mostly Cloudy,110,2013-10-06 10:37:00
6:54 AM,66.9,66.0,97,30.01,3.0,ESE,3.5,-,N/A,,Mostly Cloudy,110,2013-10-06 10:54:00
7:07 AM,66.2,66.2,100,30.02,2.5,East,4.6,-,N/A,,Mostly Cloudy,100,2013-10-06 11:07:00
7:54 AM,68.0,66.9,96,30.02,2.0,East,3.5,-,N/A,,Mostly Cloudy,80,2013-10-06 11:54:00
8:33 AM,69.8,68.0,94,30.03,2.5,ESE,4.6,-,N/A,,Mostly Cloudy,110,2013-10-06 12:33:00
8:51 AM,69.8,68.0,94,30.03,3.0,East,4.6,-,N/A,,Mostly Cloudy,90,2013-10-06 12:51:00
8:54 AM,70.0,68.0,93,30.03,3.0,East,3.5,-,N/A,,Mostly Cloudy,90,2013-10-06 12:54:00
9:54 AM,73.9,66.9,79,30.03,6.0,Calm,Calm,-,N/A,,Haze,0,2013-10-06 13:54:00
10:54 AM,78.1,66.9,68,30.03,7.0,East,5.8,-,N/A,,Mostly Cloudy,80,2013-10-06 14:54:00
11:54 AM,81.0,68.0,65,30.01,7.0,East,9.2,-,N/A,,Mostly Cloudy,80,2013-10-06 15:54:00
12:54 PM,82.9,68.0,60,29.99,7.0,ENE,6.9,-,N/A,,Mostly Cloudy,70,2013-10-06 16:54:00
1:54 PM,84.9,64.9,51,29.96,10.0,SSE,3.5,-,N/A,,Mostly Cloudy,160,2013-10-06 17:54:00
2:54 PM,84.9,66.0,53,29.95,10.0,SE,11.5,-,N/A,,Mostly Cloudy,130,2013-10-06 18:54:00
3:54 PM,86.0,64.9,49,29.94,10.0,SE,10.4,17.3,N/A,,Mostly Cloudy,130,2013-10-06 19:54:00
4:54 PM,84.0,64.0,51,29.93,10.0,SSE,9.2,18.4,N/A,,Scattered Clouds,150,2013-10-06 20:54:00
5:54 PM,81.0,64.0,56,29.93,10.0,SE,11.5,17.3,N/A,,Scattered Clouds,140,2013-10-06 21:54:00
6:54 PM,78.1,64.0,62,29.94,10.0,SSE,6.9,-,N/A,,Scattered Clouds,150,2013-10-06 22:54:00
7:54 PM,75.9,64.9,69,29.95,10.0,SSE,8.1,-,N/A,,Partly Cloudy,150,2013-10-06 23:54:00
8:54 PM,75.0,66.9,76,29.95,10.0,SSE,8.1,-,N/A,,Partly Cloudy,150,2013-10-07 00:54:00
9:54 PM,73.9,66.9,79,29.95,10.0,SSE,10.4,-,N/A,,Clear,150,2013-10-07 01:54:00
10:54 PM,73.0,66.9,81,29.95,10.0,SSE,9.2,-,N/A,,Partly Cloudy,160,2013-10-07 02:54:00
11:54 PM,72.0,66.9,84,29.94,10.0,SSE,4.6,-,N/A,,Scattered Clouds,150,2013-10-07 03:54:00